sat.trackr.live / text

‹ back to catalog

O3B FM6

NORAD 40081 · 2014-038C

PAYLOAD ACTIVE UNKNOWN

§ Identity

Operator
Country
O3B
Launch date
2014-07-10
Launch site
FRGUI
Launch vehicle
Mass (kg)
RCS (m²)
12.59

Purposes: comms

External: N2YO · Heavens-Above · Gunter

§ Orbital elements

Epoch: 2026-05-24T21:23:56.056128Z

Period
287.93 min
Inclination
0.0492°
Eccentricity
0.0002632
Mean motion
5.00115716 rev/d
Perigee alt
8,062.1 km
Apogee alt
8,069.7 km
Semi-major
14,444.0 km
B*
0.0000e+0
RAAN
351.3421°
Arg perigee
70.0819°
Mean anomaly
298.6019°
Rev number
21,666

§ Raw data

O3B FM61 40081U 14038C   26144.89162102 -.00000024  00000+0  00000+0 0  99902 40081   0.0492 351.3421 0002632  70.0819 298.6019  5.00115716216669

JSON: /api/v1/satellites/40081 · /tle

For live sub-satellite position, see the globe view (requires WebGL).

§ Visibility from observer

Set your observer location to see the next 7 days of passes ≥ 10°. The values pass through the URL so the page stays shareable.

No JS? Fill the form by hand. The geolocation button needs JavaScript.